www.pogodaiklimat.ru

Погода и климат >> Архив погоды >> Россия >> Магаданская область >> Остров Спафарьева


ПОГОДА на Остров Спафарьева

  • Прогноз погоды на Остров Спафарьева
  • Монитор погоды на Остров Спафарьева
  • Климат города

АРХИВ ПОГОДЫ на Остров Спафарьева

Время (UTC), дата Ветер
(напр.,м/с)
 
Видим.   Явления Облачность Т
(С)
Тd
(С)
f
(%)
Тe
(С)
Тes
(С)
Комфортность P
(гПа)
Po
(гПа)
Тmin
(С)
Tmax
(С)
R
(мм)
R24
(мм)
S
(см)
06 19.04 СЗ 4 50 км 3/0
[Ci fib]
+1.9 -7.7 49 -2 +1 1020.1 1013.5
09 19.04 СЗ 3 50 км 3/0
[Ci fib]
+1.2 -5.5 61 -3 -3 1019.9 1013.3 +4.1
12 19.04 С 6 50 км 6/0
[Ci fib]
+2.9 -9.7 39 -2 -2 1019.1 1012.6
15 19.04 СВ 7 50 км 3/0
[Ci fib]
+1.0 -5.5 62 -5 -5 1018.5 1011.9
18 19.04 СВ 6
{10}
50 км 3/0
[Ci fib]
+0.4 -5.4 65 -6 -6 1018.1 1011.5
21 19.04 С 4
{10}
50 км 9/3 600 м
[Sc Ac trans Ci fib]
+1.1 -8.7 48 -3 -3 1017.8 1011.2 -0.4 9
00 20.04 СВ 12-15
{19}
50 км 9/9 1000 м
[Sc]
+1.5 -6.8 54 -6 -6 1016.1 1009.6
03 20.04 СВ 8-11
{19}
50 км 9/9 600 м
[Cb cap]
+2.8 -4.9 57 -3 -3 1015.4 1008.9
06 20.04 В 6-11
{11}
50 км 9/9 600 м
[Cb cap]
+3.9 -1.7 67 -1 -1 1014.8 1008.4
09 20.04 В 7-10
{14}
50 км 10/10 600 м
[Cb cap]
+3.7 -1.3 70 -2 -2 1015.6 1009.2 +4.5
12 20.04 В 11-15
{15}
50 км 3/3 600 м
[Sc]
+3.2 -0.8 75 -4 -4 1015.9 1009.4
15 20.04 В 9-16
{17}
50 км ясно +3.0 -0.8 76 -4 -4 1015.4 1008.9
18 20.04 В 11-17
{17}
50 км 9/9 1000 м
[Sc]
+2.7 -1.3 75 -5 -5 1015.5 1009.0
21 20.04 В 9-16
{20}
50 км 9/0
[Ci fib]
+2.5 -2.2 71 -4 -4 1016.4 1009.9 +2.1 11
00 21.04 В 13-21
{21}
50 км 3/0
[Ci fib]
+3.8 -2.4 64 -3 -3 1016.0 1009.5
03 21.04 В 11-17
{21}
50 км 3/1 600 м
[Sc Ci fib]
+4.0 -2.2 64 -3 -3 1015.7 1009.2
06 21.04 В 10-15
{19}
50 км 9/1 600 м
[Sc Ac trans Ci fib]
+3.8 -2.7 62 -3 -3 1015.4 1008.9
09 21.04 В 10-18
{19}
50 км 9/3 600 м
[Sc Ac trans Ci fib]
+3.5 -2.5 65 -3 -3 1016.1 1009.6 +4.3
12 21.04 В 9-14
{20}
50 км 9/3 600 м
[Sc Ac trans Ci fib]
+2.7 -2.0 71 -4 -4 1017.1 1010.6
15 21.04 В 10-16
{21}
50 км 4/1 600 м
[Sc Ci fib]
+3.0 -1.9 70 -4 -4 1017.2 1010.7
18 21.04 В 8-13
{17}
50 км 4/1 600 м
[Sc Ci fib]
+3.2 -1.6 71 -3 -3 1017.5 1011.0
21 21.04 В 7-12
{13}
50 км 8/6 600 м
[Sc Ci fib]
+3.7 -1.7 68 -2 -2 1018.2 1011.7 +2.3 2
00 22.04 СВ 4
{15}
50 км 9/8 600 м
[Sc Ci fib]
+4.8 -1.2 65 +1 +2 1018.6 1012.1
03 22.04 В 7-11
{14}
50 км 9/9 1000 м
[Sc]
+5.3 -1.6 61 0 +1 1018.7 1012.2
06 22.04 В 5
{11}
50 км 8/8 1000 м
[Sc]
+4.2 -2.4 62 -0 0 1018.9 1012.4
09 22.04 С 3 50 км 9/9 1000 м
[Sc]
+2.2 -2.0 74 -2 -2 1020.0 1013.5 +6.7
12 22.04 С 5 50 км 9/9 1000 м
[Sc]
+0.8 -2.3 80 -5 -5 1021.1 1014.5
15 22.04 С 4 50 км 1/1 1000 м
[Sc]
+0.5 -2.9 78 -5 -5 1021.0 1014.4
18 22.04 С 2 50 км ясно -0.5 -4.3 75 -4 -4 1021.4 1014.8
21 22.04 штиль 0 50 км 3/0
[Ci fib]
+1.6 -2.9 72 +1 +4 1021.8 1015.2 -0.5 0
00 23.04 СЗ 1 50 км 9/0
[Ci fib]
+3.1 -2.8 65 +2 +10 опасность
простуды
1021.9 1015.3
03 23.04 СЗ 4 50 км 9/0
[Cs]
+2.9 -2.0 70 -2 +4 1021.8 1015.2
06 23.04 СЗ 2 50 км 9/0
[Ci fib]
+4.6 -1.8 63 +2 +6 1021.8 1015.3
09 23.04 С 5 50 км 9/0
[Ci fib]
+2.6 -3.7 63 -2 -2 1022.5 1015.9 +4.9
12 23.04 С 3 50 км 8/0
[Ci fib]
+3.7 -7.2 45 +1 +1 1022.9 1016.3
15 23.04 С 2 50 км 3/0
[Ci fib]
+4.8 -8.7 37 +3 +3 1023.0 1016.4
18 23.04 ЮВ 2 50 км 3/0
[Ci fib]
+1.8 -4.5 63 -1 -1 1023.7 1017.1
21 23.04 СВ 1 50 км 1/0
[Ci fib]
+3.8 -3.3 60 +3 +6 1023.8 1017.3 +1.4 0
00 24.04 СЗ 2 50 км ясно +3.9 -2.9 61 +2 +11 опасность
простуды
1023.5 1016.9
03 24.04 СЗ 3 50 км ясно +7.8 -4.7 41 +6 +15 опасность
простуды
1022.3 1015.9
06 24.04 С 5 50 км ясно +6.4 -4.1 47 +3 +5 1021.5 1015.0
09 24.04 С 4 50 км ясно +5.4 -2.9 55 +2 +2 1020.1 1013.6 +8.1
12 24.04 С 3 50 км ясно +4.3 -3.0 59 +1 +1 1019.5 1013.0
15 24.04 С 1 50 км ясно +3.4 -2.0 68 +2 +2 1018.7 1012.2
18 24.04 ЮВ 1 50 км ясно +3.5 -3.3 61 +2 +2 1018.7 1012.2
21 24.04 штиль 0 50 км ясно -2.0 -1 +2 1018.2 1011.7 -0.2 0
00 25.04 СЗ 1 50 км 1/0
[Ci fib]
+3.1 -1.1 74 +2 +12 опасность
простуды
1017.9 1011.4
03 25.04 С 6 50 км 1/0
[Ci fib]
+3.1 -0.8 76 -2 +2 1016.9 1010.4
06 25.04 СЗ 9-10
{10}
500 м туман ?/? -1.0 -1.3 98 -9 -9 1015.7 1009.1
09 25.04 СЗ 9-10
{11}
200 м туман ?/? -2.1 -2.2 99 -11 -11 1014.9 1008.3 +5.2
12 25.04 СЗ 7
{11}
200 м туман ?/? -2.5 -2.6 99 -11 -11 1014.4 1007.7
15 25.04 СЗ 9-10
{10}
200 м туман ?/? -2.6 -2.7 99 -11 -11 1013.2 1006.5
18 25.04 СЗ 7
{10}
200 м туман ?/? -2.8 -2.9 99 -11 -11 1012.5 1005.9
21 25.04 СЗ 4 200 м туман ?/? -2.5 -2.6 99 -9 -9 1012.2 1005.6 -2.9 0
00 26.04 СЗ 4 50 км {туман} 9/9 200 м
[St]
-1.7 -1.8 99 -8 -7 1011.7 1005.1

 

Местоположение метеостанции Остров Спафарьева (Магаданская область, Россия): широта 59.15 долгота 149.00 высота над уровнем моря 52 м.

В архиве по умолчанию представлена погода на Остров Спафарьева за последнюю неделю. Архивные данные за месяц целиком и за предыдущие месяцы, начиная с января 2011 года, Вы можете получить, выбрав интересующий диапазон дат из раскрывающегося списка и нажав кнопку "Ввод!".

Внимание! Время в таблицах - всемирное. Для получения местного времени необходимо прибавить поправку, которая на Остров Спафарьева равна 11 ч.

Смотрите также архив погоды в соседних городах и на ближайших метеорологических станциях:

Погода в Талоне (Магаданская область, Россия) (72 км)
Погода в Армани (Магаданская область, Россия) (84 км)
Погода в Магадане (Магаданская область, Россия) (106 км)
Погода в Оле (Магаданская область, Россия) (133 км)
Погода на Мысе Алевина (Магаданская область, Россия) (137 км)
Погода в Палатке (Магаданская область, Россия) (150 км)
Погода в Мадауне (Магаданская область, Россия) (187 км)
Погода в Усть-Омчуге (Магаданская область, Россия) (222 км)
Погода на Мысе Братьев (Магаданская область, Россия) (245 км)
Погода в Талае (Магаданская область, Россия) (286 км)

Пояснения к столбцам:

Ветер - указаны скорость ветра в м/с - средняя за 10 мин, порывы в срок и между сроками (в фигурных скобках) и направление, откуда дует ветер: С - северный, СВ - северо-восточный, В - восточный, ЮВ - юго-восточный, Ю - южный, ЮЗ - юго-западный, З - западный, СЗ - северо-западный.
Видимость - горизонтальная дальность видимости в метрах или километрах. При видимости от 1 до 10 км при отсутствии осадков обычно наблюдается дымка, при ухудшении видимости до 1 км и менее - туман. В сухую погоду видимость может ухудшаться дымом, пылью или мглою.
Явления - указаны атмосферные явления, наблюдавшиеся в срок или в последний час перед сроком; фигурными скобками обозначены явления, наблюдавшиеся между сроками (за 1-3 часа до срока); квадратными скобками обозначены град или гололедные отложения с указанием их диаметра в мм.
Облачность - указаны через наклонную черту общая и нижняя облачность в баллах и высота нижней границы облаков в метрах; квадратными скобками обозначены формы облаков: Ci - перистые, Cs - перисто-слоистые, Cc - перисто-кучевые, Ac - высококучевые, As - высокослоистые, Sc - слоисто-кучевые, Ns - слоисто-дождевые, Cu - кучевые, Cb - кучево-дождевые. Подробнее классификацию облаков см. в Атласе облаков (PDF).
T - Температура воздуха - температура, измеренная на высоте 2 м над землей.
Td - Температура точки росы - температура, при понижении до которой содержащийся в воздухе водяной пар достигнет насыщения.
f - Относительная влажность воздуха - влажноcть воздуха, измеренная на высоте 2 м над землей.
Te - Эффективная температура - температура, которую ощущает одетый по сезону человек в тени. Характеристика душности погоды. При расчете учитывается влияние влажности воздуха и скорости ветра на теплоощущения человека.
Tes - Эффективная температура на солнце - температура, которую ощущает человек, с поправкой на солнечный нагрев. Характеристика знойности погоды. Зависит от высоты солнца над горизонтом, облачности и скорости ветра. Ночью, в пасмурную погоду, а также при ветре 12 м/с и более поправка равна нулю.
P - Атмосферное давление - приведенное к уровню моря атмосферное давление.
Po - Атмосферное давление - измеренное на уровне метеостанции атмосферное давление.
Tmin - Минимальная температура - минимум температуры воздуха на высоте 2 м над землей.
Tmax - Максимальная температура - максимум температуры воздуха на высоте 2 м над землей.
R - Количество осадков - Количество выпавших осадков за период времени, мм. При наведении курсора мыши на число - период времени, за который выпало указанное количество осадков.
R24 - Количество осадков - Количество выпавших осадков за 24 часа, мм.
S - Снежный покров - Высота снежного покрова, см. При наведении курсора мыши на число - состояние снежного покрова и степень покрытия местности в баллах.